COSMOS 2251 DEB, 34459

Orbit data source: Space-Track

COSMOS 2251 DEB, 34459 is space debris in LEO originally from a launch on Wed, 16 Jun 1993 UTC launched from the Plesetsk Missile And Space Complex (PKMTR). The debris from Iridium 33, an American commercial communications satellite, has been tracked extensively since its accidental collision with the defunct Russian satellite Cosmos 2251 in 2009. This event, occurring at high speed in low Earth orbit (LEO), generated thousands of pieces of space debris, significantly increasing the risk of further collisions. The Iridium 33 debris cloud has impacted space traffic management and orbital debris mitigation strategies, making it a subject of ongoing study in space situational awareness.

Loading next visibility...
Identifier
34459, 1993-036TC
Orbit
LEO
Country
Flag of CISCIS
Related business
Manufacturer
Unknown
Mission
Spacecraft
Bus & Motor
Unknown
Mass
Unknown
Launch date (UTC)
1993-06-16 (33 years ago)
Launch vehicle
Unknown
Launch site
Plesetsk Missile And Space Complex (PKMTR)
Object type
Payload
Rocket body
Debris
Shape & HBR
Unknown shape, 0.1 m
Radar Cross Section
Medium (>0.1 m² and <1 m²)

Expand to show TLE details & history
Last TLE update: 21 hours ago

TLE from 21 hours ago
0 COSMOS 2251 DEB
1 34459U 93036TC  26174.97932903  .00000370  00000-0  22560-3 0  9996
2 34459  74.0796 279.9696 0191802 303.7690  54.5300 14.00773753884179
Epoch: 2026-06-23T23:30Z
TLE epoch observation values (Epoch: 2026-06-23T23:30:14.028Z)
Latitude
-0.00002°
Longitude
15.26802°
Altitude
814.575 km
Speed
7.486 km/s
True Right ascension
18h 39m 52s
True Declination
0° 00' 00"
Sunlit
Object was in full shadow at epoch
Visualization orbit readout
Latitude
Unknown
Longitude
Unknown
Altitude
Unknown
Speed
Unknown
Apparent Right ascension
Unknown
Apparent Declination
Unknown
Sunlit
N/A
Visualization observer readout
Local Sidereal Time
07:37:14
Azimuth
Unknown
Elevation
Unknown
Doppler factor
Unknown
Orbital elements
Apogee altitude
1,028.156 km
Perigee altitude
749.394 km
Semi-major axis
7,266.912 km
Eccentricity
0.01918
Inclination
74.0796°
RAAN
279.9696°
Arg. of periapsis
303.769°
True anomaly
56.34494°
Mean anomaly
54.53°
Eccentric anomaly
55.43496°
Mean motion
3.50363 °/min
Orbital period
102.75 mins
BSTAR
0.0002256

Documentation

Showing up to 5 results
|